Newport, Oregon, United States (97365)
Lat: 44.64N, Lon: 124.05W
Wx Zone: ORZ002
Local Info
Past Weather Observations for Today

NOTE: This archive is for the closest National Weather Service station to Newport. Information may differ from the station used for current weather conditions.

Click here for Long-term Archive

Time Weather Temperature Dewpoint Humidity Pressure Winds Precip Visibility
19:55
Clear
Fog And Mist
59°F / 15°C 55°F / 13°C 88% 29.89 in
(1012 mb)
Calm - 4SM
19:35
Clear
Fog And Mist
59°F / 15°C 55°F / 13°C 88% 29.86 in
(1011 mb)
Calm - 4SM
19:15
Clear
Fog And Mist
61°F / 16°C 57°F / 14°C 88% 29.86 in
(1011 mb)
NW 3.5 mph
(NW 6 kph)
- 5SM
18:55
Clear
Fog And Mist
61°F / 16°C 57°F / 14°C 88% 29.89 in
(1012 mb)
Calm - 5SM
18:35
Clear
Fog And Mist
61°F / 16°C 57°F / 14°C 88% 29.89 in
(1012 mb)
NW 3.5 mph
(NW 6 kph)
- 5SM
18:15
Clear
Fog And Mist
61°F / 16°C 57°F / 14°C 88% 29.86 in
(1011 mb)
NNW 4.6 mph
(NNW 7 kph)
- 5SM
17:55
Clear
Fog And Mist
61°F / 16°C 57°F / 14°C 88% 29.86 in
(1011 mb)
NW 4.6 mph
(NW 7 kph)
- 5SM
17:35
Clear
Fog And Mist
61°F / 16°C 57°F / 14°C 88% 29.86 in
(1011 mb)
NW 6.9 mph
(NW 11 kph)
- 5SM
17:15
Clear
Hazy
63°F / 17°C 57°F / 14°C 83% 29.86 in
(1011 mb)
NNW 6.9 mph
(NNW 11 kph)
- 5SM
16:55
Clear
Hazy
63°F / 17°C 57°F / 14°C 83% 29.89 in
(1012 mb)
NNW 6.9 mph
(NNW 11 kph)
- 5SM
16:35
Clear
63°F / 17°C 57°F / 14°C 83% 29.89 in
(1012 mb)
NW 6.9 mph
(NW 11 kph)
- 7SM
16:15
Clear
64°F / 18°C 57°F / 14°C 78% 29.89 in
(1012 mb)
NNW 8.1 mph
(NNW 13 kph)
- 7SM
15:55
Clear
64°F / 18°C 57°F / 14°C 78% 29.89 in
(1012 mb)
NW 5.8 mph
(NW 9 kph)
- 7SM
15:35
Clear
Hazy
64°F / 18°C 57°F / 14°C 78% 29.89 in
(1012 mb)
NW 5.8 mph
(NW 9 kph)
- 5SM
15:15
Clear
Hazy
63°F / 17°C 55°F / 13°C 77% 29.89 in
(1012 mb)
W 6.9 mph
(W 11 kph)
- 5SM
14:55
Clear
63°F / 17°C 57°F / 14°C 83% 29.92 in
(1013 mb)
W 8.1 mph
(W 13 kph)
- 7SM
14:35
Clear
Hazy
63°F / 17°C 55°F / 13°C 77% 29.92 in
(1013 mb)
WNW 8.1 mph
(WNW 13 kph)
- 5SM
14:15
Clear
Hazy
63°F / 17°C 55°F / 13°C 77% 29.92 in
(1013 mb)
WNW 5.8 mph
(WNW 9 kph)
- 5SM
13:55
Clear
63°F / 17°C 55°F / 13°C 77% 29.92 in
(1013 mb)
WNW 6.9 mph
(WNW 11 kph)
- 7SM
13:35
Clear
61°F / 16°C 55°F / 13°C 83% 29.92 in
(1013 mb)
NW 5.8 mph
(NW 9 kph)
- 7SM
13:15
Clear
63°F / 17°C 55°F / 13°C 77% 29.92 in
(1013 mb)
WNW 5.8 mph
(WNW 9 kph)
- 7SM
12:55
Clear
63°F / 17°C 55°F / 13°C 77% 29.92 in
(1013 mb)
WNW 6.9 mph
(WNW 11 kph)
- 7SM
12:35
Clear
63°F / 17°C 55°F / 13°C 77% 29.92 in
(1013 mb)
NW 5.8 mph
(NW 9 kph)
- 7SM
12:15
Clear
63°F / 17°C 55°F / 13°C 77% 29.92 in
(1013 mb)
NW 6.9 mph
(NW 11 kph)
- 7SM
11:55
Clear
61°F / 16°C 55°F / 13°C 83% 29.92 in
(1013 mb)
NW 6.9 mph
(NW 11 kph)
- 10SM
11:35
Clear
61°F / 16°C 55°F / 13°C 83% 29.92 in
(1013 mb)
NW 6.9 mph
(NW 11 kph)
- 7SM
11:15
Clear
63°F / 17°C 55°F / 13°C 77% 29.92 in
(1013 mb)
NW 8.1 mph
(NW 13 kph)
- 7SM
10:55
Clear
63°F / 17°C 55°F / 13°C 77% 29.92 in
(1013 mb)
NNW 5.8 mph
(NNW 9 kph)
- 7SM
10:35
Clear
63°F / 17°C 55°F / 13°C 77% 29.95 in
(1014 mb)
WNW 6.9 mph
(WNW 11 kph)
- 7SM
10:15
Clear
63°F / 17°C 55°F / 13°C 77% 29.95 in
(1014 mb)
WNW 6.9 mph
(WNW 11 kph)
- 7SM
09:55
Clear
63°F / 17°C 55°F / 13°C 77% 29.95 in
(1014 mb)
NW 5.8 mph
(NW 9 kph)
- 7SM
09:35
Clear
63°F / 17°C 55°F / 13°C 77% 29.95 in
(1014 mb)
N 5.8 mph
(N 9 kph)
- 7SM
09:15
Clear
61°F / 16°C 55°F / 13°C 83% 29.95 in
(1014 mb)
WNW 5.8 mph
(WNW 9 kph)
- 7SM
08:55
Clear
59°F / 15°C 55°F / 13°C 88% 29.95 in
(1014 mb)
W 4.6 mph
(W 7 kph)
- 7SM
08:35
Clear
Hazy
61°F / 16°C 55°F / 13°C 83% 29.95 in
(1014 mb)
NW 4.6 mph
(NW 7 kph)
- 5SM
08:15
Partly Cloudy
Fog And Mist
59°F / 15°C 55°F / 13°C 88% 29.95 in
(1014 mb)
N 3.5 mph
(N 6 kph)
- 5SM
07:55
Overcast
57°F / 14°C 55°F / 13°C 94% 29.95 in
(1014 mb)
Calm - 7SM
07:35
Overcast
Fog And Mist
57°F / 14°C 55°F / 13°C 94% 29.95 in
(1014 mb)
Calm - 5SM
07:15
Overcast
Fog And Mist
55°F / 13°C 55°F / 13°C 100% N/A Calm - 5SM
06:55
Overcast
Fog And Mist
55°F / 13°C 54°F / 12°C 94% 29.95 in
(1014 mb)
E 3.5 mph
(E 6 kph)
- 5SM
06:35
Overcast
Fog And Mist
55°F / 13°C 54°F / 12°C 94% 29.95 in
(1014 mb)
NE 4.6 mph
(NE 7 kph)
- 5SM
06:15
Overcast
Fog And Mist
55°F / 13°C 55°F / 13°C 100% 29.95 in
(1014 mb)
E 3.5 mph
(E 6 kph)
- 5SM
05:55
Overcast
54°F / 12°C 54°F / 12°C 100% 29.95 in
(1014 mb)
Calm - 7SM
05:35
Overcast
52°F / 11°C 52°F / 11°C 100% 29.95 in
(1014 mb)
Calm - 7SM
05:15
Overcast
Fog And Mist
52°F / 11°C 50°F / 10°C 94% 29.95 in
(1014 mb)
Calm - 5SM
04:55
Overcast
Fog And Mist
52°F / 11°C 50°F / 10°C 94% 29.95 in
(1014 mb)
Calm - 5SM
04:35
Overcast
Fog And Mist
52°F / 11°C 50°F / 10°C 94% 29.95 in
(1014 mb)
Calm - 5SM
04:15
Overcast
52°F / 11°C 52°F / 11°C 100% 29.95 in
(1014 mb)
Calm - 7SM
03:55
Overcast
Fog And Mist
52°F / 11°C 50°F / 10°C 94% 29.95 in
(1014 mb)
Calm - 5SM
03:35
Overcast
Fog And Mist
52°F / 11°C 52°F / 11°C 100% 29.95 in
(1014 mb)
Calm - 5SM
03:15
Overcast
Fog And Mist
52°F / 11°C 52°F / 11°C 100% 29.95 in
(1014 mb)
Calm - 5SM
02:55
Overcast
Fog And Mist
50°F / 10°C 50°F / 10°C 100% 29.95 in
(1014 mb)
Calm - 5SM
02:35
Overcast
Fog And Mist
50°F / 10°C 48°F / 9°C 94% 29.95 in
(1014 mb)
Calm - 5SM
02:15
Overcast
Fog And Mist
50°F / 10°C 48°F / 9°C 94% 29.95 in
(1014 mb)
Calm - 5SM
01:55
Overcast
Fog
50°F / 10°C 48°F / 9°C 94% 29.95 in
(1014 mb)
Calm - 1/2SM
01:35
Overcast
Fog
50°F / 10°C 48°F / 9°C 94% 29.98 in
(1015 mb)
Calm - 1/2SM
01:15
Overcast
Fog And Mist
50°F / 10°C 50°F / 10°C 100% 29.98 in
(1015 mb)
Calm - 1 1/4SM
00:55
Overcast
Fog And Mist
50°F / 10°C 50°F / 10°C 100% 29.98 in
(1015 mb)
Calm - 3SM
00:35
Overcast
Fog And Mist
52°F / 11°C 52°F / 11°C 100% 29.98 in
(1015 mb)
Calm - 3SM
00:15
Overcast
Fog And Mist
52°F / 11°C 52°F / 11°C 100% 29.98 in
(1015 mb)
Calm - 4SM
Time Weather Temperature Dewpoint Humidity Pressure Winds Precip Visibility


Weather for websites

WeatherForYou.com, LLC is not responsible for any damages or problems caused by this service. Current weather conditions are obtained from the closest station including government and personal stations which may have varying degrees of accuracy. Weather forecasts are derived from the NOAA NDFD. Like all things, this site belongs to Jesus Christ... He just trusts us to maintain it. If you have any questions or comments email webmaster@weatherforyou.com

Copyright © 2015, WeatherForYou.com LLC. All rights reserved.